Location: ??
(35.5653°N, 139.6194°E)
Time: 06:05:07
(UTC+00:00)

OAO 2 Rocket - Pass Details

Date: 20 November 2019
Orbit: 676 x 746 km, 35.0° (Epoch: 08 December)

Event Time Altitude Azimuth Distance (km) Brightness Sun altitude
Exits shadow 19:06:27 58° 163° (SSE) 836 3.7 -27.4°
Drops below altitude 10° 19:10:55 10° 115° (ESE) 2,175 6.7 -26.5°
Sets 19:13:20 0° 112° (ESE) 3,081 7.8 -26.0°
